Wind_Speed
5 6 5 6 6 7 7 7 7 7 6 6 6 6 7 8 8 8 9 9 9 9 9 9 9 10 10 9 9 8 8 8 9 8 8 9 9 10 9 9 8 7 7 7
5 6 5 6 6 6 6 6 6 6 5 6 6 6 7 8 8 7 7 8 8 9 8 8 9 10 10 10 9 9 9 9 9 9 9 9 9 9 9 9 9 8 8 7
5 5 5 5 5 5 5 5 5 5 6 6 6 6 7 8 7 7 7 7 8 8 9 8 9 9 10 10 10 10 10 10 10 10 10 9 9 9 10 10 10 9 9 8
5 5 6 5 5 5 5 5 5 5 6 6 7 6 6 7 7 7 7 8 8 8 9 9 9 9 9 10 10 11 11 11 11 10 10 9 10 10 10 10 10 9 9 9
5 5 5 5 5 5 5 5 5 6 6 6 6 7 6 7 7 7 7 8 9 9 9 9 9 9 10 10 11 11 11 11 11 11 10 10 10 10 10 10 9 9 9 9
5 5 5 5 6 6 6 6 6 7 7 6 7 8 7 7 6 6 7 8 9 8 8 9 9 9 10 10 10 10 10 11 12 11 11 11 11 10 10 10 10 10 10 10
5 6 6 6 6 6 7 7 7 7 7 7 7 7 6 6 6 6 7 8 8 7 8 8 9 10 10 10 10 10 10 11 12 11 11 11 11 11 10 10 10 10 10 10
5 6 6 6 6 6 7 8 8 8 8 7 7 6 6 6 6 5 5 6 7 7 7 9 10 10 11 11 11 11 11 12 11 11 11 11 11 11 11 11 10 10 10 10
6 6 7 7 7 8 8 8 8 8 8 8 7 6 5 5 5 5 5 6 6 7 8 9 10 10 11 11 12 12 12 12 12 12 12 12 11 11 12 11 11 11 11 11
7 7 7 8 8 9 9 9 9 8 8 8 8 7 6 5 5 5 5 6 7 7 8 8 10 10 11 11 12 12 12 12 12 13 12 12 12 12 12 12 12 12 12 12
8 8 8 8 9 9 10 10 9 9 9 9 8 7 7 6 6 6 6 7 7 7 8 8 9 10 10 11 12 12 12 12 12 13 13 13 13 13 13 13 13 13 13 13
9 9 8 8 9 10 10 10 10 10 9 9 9 7 7 7 7 8 8 8 8 7 8 9 10 10 11 11 12 12 13 12 12 13 13 13 13 13 14 14 14 14 14 14
10 10 10 9 9 10 11 11 10 11 11 11 11 9 8 9 9 9 9 9 9 8 8 9 9 10 11 12 12 12 12 12 12 13 13 14 14 15 14 14 14 14 14 14
11 11 11 11 9 10 10 11 11 11 12 12 11 10 10 10 10 10 11 10 10 9 9 9 10 11 11 12 12 12 12 13 13 13 14 14 15 15 15 15 15 15 16 16
13 13 13 12 11 11 11 12 12 13 12 13 12 12 11 11 11 11 11 11 11 11 11 11 11 12 12 12 12 12 13 14 14 15 15 15 15 15 15 16 16 17 17 16
14 15 15 14 14 14 13 12 14 14 15 15 15 14 13 14 13 13 12 12 12 13 13 12 13 13 13 13 13 13 14 14 14 15 15 16 16 16 16 16 17 17 17 17
16 16 16 16 15 16 15 14 14 15 15 15 15 14 15 16 15 14 14 13 13 14 14 13 13 13 13 14 14 14 14 14 14 14 14 15 15 16 16 16 16 16 17 17
17 18 18 18 17 18 15 15 16 16 16 16 16 15 15 16 16 16 15 15 15 15 15 14 13 13 13 14 13 14 14 14 14 14 14 15 15 16 16 16 17 17 17 17
19 19 20 20 19 19 17 16 17 17 16 16 16 16 16 16 16 16 16 17 16 15 15 15 14 14 14 14 14 14 14 14 14 14 15 15 16 17 17 18 18 18 18 18
21 21 21 21 22 21 17 17 17 18 18 17 17 16 17 17 17 16 16 16 16 16 15 15 14 14 14 14 14 14 15 15 15 15 15 16 17 18 18 19 19 19 19 19
22 22 22 22 22 21 19 18 18 19 19 18 18 18 18 17 17 18 18 17 17 17 16 16 15 15 15 15 15 15 16 17 16 16 17 17 17 18 19 20 20 20 20 21
24 24 24 24 24 22 20 20 20 20 20 20 20 20 19 19 19 19 19 19 18 17 18 17 17 17 16 16 16 16 16 17 18 18 19 19 19 20 21 21 21 22 22 23
25 25 25 25 24 22 21 22 22 22 22 22 21 21 21 20 20 20 20 20 20 19 19 18 18 18 17 18 18 17 18 19 20 20 20 20 21 21 22 22 22 22 23 24
26 26 26 26 24 23 23 23 23 23 23 22 22 22 22 22 22 22 22 22 22 21 21 20 20 19 18 19 19 19 19 21 22 21 22 22 22 23 23 23 23 23 24 25
25 26 26 27 26 25 24 24 24 23 23 23 23 23 23 23 23 22 22 23 23 22 22 22 21 21 20 20 21 21 21 22 23 23 24 24 24 24 24 25 25 25 25 26
24 26 27 27 26 27 26 26 25 25 25 24 24 24 24 23 23 23 23 24 23 23 23 23 23 22 22 23 23 23 23 24 24 24 25 25 26 26 26 26 27 27 26 27
Wind_Direction
230 232 230 233 236 236 234 243 254 259 258 251 250 253 246 240 241 247 249 247 243 242 244 244 245 246 247 251 252 253 257 257 257 260 263 265 267 268 266 266 270 270 269 272
232 229 229 237 245 248 249 249 253 259 265 259 256 245 246 241 239 243 243 242 242 244 245 242 246 246 246 248 251 252 254 259 260 263 264 267 269 266 266 266 267 269 273 274
230 228 234 241 247 257 259 258 255 261 266 263 256 245 245 244 244 248 248 247 250 254 252 247 244 242 242 244 249 252 254 256 260 265 264 265 267 269 266 264 265 267 268 271
231 231 238 243 248 245 252 259 258 259 263 260 260 255 248 251 249 253 252 252 252 252 249 249 247 243 244 246 249 252 254 256 261 261 259 264 266 268 265 263 263 263 268 272
223 225 238 243 246 250 254 250 256 267 267 258 260 260 250 254 257 257 252 252 250 249 250 248 246 246 245 246 250 254 255 257 260 259 259 262 266 266 263 261 261 263 268 272
227 227 236 245 249 252 250 253 259 268 273 266 267 267 260 257 261 257 251 249 247 248 247 249 252 253 248 244 247 254 255 257 260 258 259 261 263 264 260 260 262 265 268 270
227 231 240 245 246 251 253 254 263 264 264 269 269 268 263 264 269 257 254 252 246 244 247 252 254 254 252 248 248 250 256 258 258 255 256 260 262 262 261 262 263 267 270 272
242 239 244 241 242 255 257 256 264 270 269 267 267 264 260 264 270 258 255 255 248 247 249 251 254 255 252 248 251 255 259 259 253 253 257 259 261 261 260 263 265 267 272 274
250 253 253 257 257 260 262 257 265 272 272 271 264 259 258 259 262 250 248 251 252 255 253 249 252 253 251 248 251 256 261 258 251 254 259 261 261 261 262 264 266 270 272 273
253 257 254 259 263 258 258 263 263 269 274 275 264 257 257 253 252 248 248 254 255 262 261 256 256 257 253 250 250 255 259 256 252 254 256 259 260 261 263 264 265 269 271 273
255 257 255 257 263 260 258 259 261 266 272 273 272 264 260 257 260 254 256 257 259 264 263 261 257 257 255 255 255 254 259 257 254 255 256 260 260 259 260 262 264 266 269 269
258 257 256 261 261 260 261 261 261 262 267 273 277 278 265 266 266 265 267 268 265 263 262 263 261 257 255 257 258 256 260 257 258 256 255 259 261 261 261 261 263 266 268 270
266 265 266 264 260 261 262 262 263 263 264 272 277 281 272 272 270 272 275 276 275 272 265 264 265 264 260 258 259 260 257 256 257 257 257 258 261 263 264 263 266 267 268 271
267 266 266 263 258 258 259 262 267 269 269 275 280 282 277 275 274 274 276 277 277 276 272 269 265 264 265 262 262 261 258 258 259 259 259 261 263 264 263 264 269 272 272 273
267 270 268 260 258 258 259 259 265 268 273 274 277 278 280 277 277 275 275 274 276 276 274 270 266 267 267 263 261 263 263 261 262 261 260 261 264 265 266 268 271 274 274 275
264 270 269 264 261 260 260 260 262 266 270 273 274 274 277 278 276 277 278 278 280 277 272 269 266 267 267 264 264 266 266 264 265 265 263 263 265 267 268 271 273 275 276 277
261 263 266 265 263 262 260 262 264 267 269 272 275 273 273 275 276 276 276 279 281 279 272 270 268 264 263 263 264 266 267 267 268 267 266 266 265 267 268 270 271 273 277 279
260 260 262 265 262 260 264 262 262 265 265 268 272 271 271 272 271 270 270 271 275 277 277 274 271 266 263 264 267 265 264 265 268 267 267 268 267 266 266 268 271 274 277 278
261 260 262 263 264 264 263 263 263 265 266 268 270 272 273 272 271 269 270 272 274 274 273 272 271 270 267 266 268 266 265 264 265 266 269 269 270 268 268 270 273 275 277 279
260 261 262 262 264 266 265 264 264 266 266 267 268 269 271 271 268 268 270 271 271 270 272 272 272 272 269 266 266 266 266 267 266 267 270 271 271 271 272 273 274 275 277 279
259 260 261 262 265 267 267 266 266 266 271 268 266 266 267 269 269 268 270 270 268 268 271 272 271 271 269 268 268 269 270 269 267 267 270 272 273 273 274 275 275 275 277 279
261 261 261 262 264 267 268 266 267 269 268 267 266 266 265 268 270 270 270 269 267 267 269 269 269 269 268 269 270 270 270 267 267 270 271 272 274 274 275 275 276 277 279 281
261 262 261 262 263 266 267 267 266 268 268 266 264 265 263 264 268 269 269 268 267 266 266 265 266 268 268 268 270 270 269 269 268 270 271 272 274 276 275 276 277 279 281 282
260 260 261 259 260 262 264 265 265 265 266 266 266 265 262 263 265 267 267 265 263 263 265 265 265 266 267 269 270 270 270 268 268 269 271 272 274 275 275 275 278 280 282 283
261 261 260 260 259 260 262 265 265 264 263 264 264 264 262 262 263 265 266 265 262 261 263 265 263 263 266 267 269 270 271 270 270 271 272 272 272 273 274 276 279 281 282 282
262 261 260 260 260 260 261 262 263 264 264 264 263 263 261 261 263 264 264 263 263 262 263 262 263 264 266 267 269 270 272 272 273 275 275 272 272 274 276 278 280 280 280 282
Height
5857 5859 5859 5859 5859 5860 5860 5861 5861 5862 5861 5862 5862 5863 5863 5864 5864 5865 5866 5867 5868 5868 5869 5870 5870 5871 5872 5873 5873 5873 5874 5874 5874 5874 5874 5874 5874 5874 5873 5873 5873 5873 5872 5872
5857 5857 5857 5857 5858 5858 5859 5859 5859 5860 5860 5860 5860 5861 5861 5861 5862 5863 5864 5865 5866 5866 5866 5867 5868 5869 5870 5870 5870 5871 5871 5872 5872 5872 5872 5872 5871 5871 5871 5871 5871 5871 5870 5870
5855 5857 5856 5857 5857 5857 5857 5858 5858 5858 5858 5858 5859 5860 5860 5860 5860 5861 5861 5862 5863 5864 5864 5865 5866 5866 5867 5867 5868 5869 5869 5869 5869 5869 5869 5869 5869 5869 5869 5869 5868 5868 5868 5868
5854 5855 5855 5855 5856 5855 5856 5856 5856 5856 5857 5857 5857 5858 5858 5858 5858 5859 5859 5860 5861 5861 5861 5862 5863 5864 5864 5865 5865 5866 5866 5866 5867 5867 5867 5867 5867 5867 5866 5866 5866 5866 5866 5865
5853 5853 5854 5854 5855 5854 5854 5854 5855 5855 5855 5855 5855 5855 5857 5856 5856 5857 5857 5857 5858 5858 5859 5859 5860 5861 5861 5862 5863 5863 5863 5864 5864 5864 5864 5864 5864 5864 5864 5864 5863 5863 5863 5863
5852 5852 5852 5853 5853 5853 5853 5854 5853 5853 5853 5854 5854 5853 5854 5854 5854 5854 5855 5855 5855 5856 5856 5857 5857 5858 5858 5859 5859 5860 5860 5860 5861 5861 5861 5862 5862 5862 5861 5861 5861 5861 5861 5861
5850 5851 5851 5851 5851 5851 5852 5852 5852 5852 5852 5852 5851 5851 5852 5851 5851 5852 5852 5852 5853 5853 5854 5854 5854 5855 5855 5856 5856 5857 5857 5857 5858 5858 5858 5859 5859 5859 5859 5859 5859 5858 5858 5858
5849 5849 5849 5849 5850 5850 5850 5850 5851 5851 5850 5850 5849 5848 5850 5849 5849 5849 5849 5849 5850 5850 5851 5851 5852 5852 5852 5853 5853 5854 5854 5854 5855 5855 5855 5856 5856 5856 5856 5856 5856 5856 5855 5855
5847 5848 5848 5848 5848 5848 5848 5848 5849 5848 5847 5847 5847 5847 5847 5847 5847 5847 5847 5847 5847 5848 5848 5849 5849 5849 5849 5850 5851 5851 5851 5851 5852 5852 5852 5853 5853 5853 5853 5853 5853 5853 5852 5852
5845 5845 5846 5846 5846 5846 5846 5846 5846 5846 5845 5845 5845 5845 5845 5845 5845 5845 5845 5845 5845 5845 5845 5846 5846 5846 5847 5847 5847 5848 5848 5848 5848 5849 5849 5849 5849 5850 5850 5850 5850 5849 5849 5849
5842 5843 5844 5844 5843 5843 5844 5844 5843 5843 5843 5843 5842 5845 5843 5843 5843 5842 5842 5842 5842 5842 5843 5843 5843 5843 5843 5844 5844 5845 5845 5845 5845 5845 5846 5846 5846 5846 5847 5847 5846 5846 5846 5845
5840 5840 5840 5841 5841 5841 5841 5841 5841 5841 5841 5840 5840 5844 5841 5841 5840 5840 5840 5840 5840 5840 5840 5840 5840 5840 5840 5840 5840 5841 5841 5841 5841 5842 5842 5842 5842 5842 5843 5843 5842 5842 5842 5842
5837 5838 5838 5838 5840 5839 5838 5837 5837 5838 5838 5838 5838 5842 5839 5838 5838 5837 5837 5837 5837 5837 5837 5837 5837 5837 5837 5837 5837 5837 5837 5838 5838 5838 5838 5839 5839 5839 5839 5839 5839 5838 5838 5838
5834 5834 5835 5835 5835 5835 5835 5835 5835 5835 5835 5835 5835 5836 5836 5835 5835 5835 5835 5834 5834 5834 5834 5834 5834 5833 5833 5833 5833 5833 5834 5834 5834 5834 5834 5835 5835 5835 5835 5835 5835 5834 5834 5834
5830 5830 5830 5831 5831 5831 5832 5832 5832 5831 5831 5832 5832 5832 5833 5832 5832 5831 5831 5831 5831 5830 5830 5830 5830 5830 5829 5829 5830 5830 5830 5830 5830 5830 5830 5831 5831 5831 5831 5831 5830 5830 5830 5829
5826 5826 5826 5826 5827 5827 5827 5828 5828 5828 5828 5828 5828 5829 5829 5828 5828 5827 5827 5827 5827 5826 5826 5826 5826 5825 5825 5825 5826 5826 5826 5826 5826 5826 5826 5827 5827 5827 5826 5826 5826 5825 5825 5824
5821 5821 5821 5821 5822 5821 5822 5824 5824 5824 5823 5824 5823 5825 5824 5824 5823 5823 5823 5823 5822 5822 5822 5822 5821 5821 5821 5821 5821 5822 5822 5822 5822 5822 5822 5822 5822 5822 5822 5821 5821 5821 5820 5819
5816 5816 5815 5816 5817 5816 5820 5819 5818 5818 5819 5819 5819 5819 5819 5819 5819 5819 5819 5818 5818 5818 5817 5817 5817 5817 5817 5817 5817 5817 5817 5817 5817 5817 5817 5818 5817 5817 5817 5817 5816 5816 5815 5814
5810 5810 5810 5810 5809 5810 5813 5813 5813 5812 5813 5814 5814 5814 5814 5814 5813 5814 5814 5813 5813 5813 5812 5812 5812 5812 5812 5812 5813 5813 5813 5812 5813 5813 5813 5813 5813 5812 5812 5812 5811 5810 5810 5809
5803 5803 5804 5804 5803 5804 5809 5808 5807 5807 5808 5809 5809 5808 5808 5808 5809 5809 5808 5808 5808 5808 5808 5807 5808 5808 5808 5808 5808 5808 5808 5808 5808 5808 5808 5808 5808 5807 5807 5806 5805 5805 5804 5803
5797 5797 5797 5797 5797 5798 5802 5802 5802 5802 5804 5803 5802 5802 5802 5803 5804 5804 5803 5803 5803 5803 5803 5803 5803 5803 5803 5803 5803 5803 5803 5803 5803 5803 5803 5802 5802 5802 5801 5800 5799 5799 5798 5797
5789 5790 5790 5790 5790 5794 5794 5794 5795 5795 5795 5795 5796 5796 5796 5797 5797 5797 5797 5797 5797 5797 5797 5797 5798 5798 5798 5798 5798 5798 5798 5798 5797 5797 5797 5797 5796 5795 5795 5794 5793 5792 5791 5790
5781 5782 5782 5784 5786 5786 5786 5787 5787 5787 5787 5788 5788 5789 5789 5790 5790 5791 5791 5791 5791 5792 5792 5792 5792 5792 5792 5793 5793 5793 5792 5792 5792 5791 5791 5790 5790 5789 5788 5787 5786 5785 5784 5783
5773 5773 5773 5774 5776 5778 5778 5778 5779 5779 5779 5780 5781 5782 5782 5783 5783 5784 5784 5784 5785 5785 5786 5786 5786 5786 5786 5787 5787 5787 5786 5786 5785 5785 5785 5784 5783 5782 5781 5780 5779 5778 5777 5775
5764 5764 5764 5765 5768 5769 5770 5771 5771 5772 5772 5772 5773 5774 5774 5775 5776 5776 5777 5777 5778 5779 5779 5779 5779 5780 5780 5780 5780 5780 5779 5779 5778 5778 5777 5776 5776 5774 5774 5772 5771 5770 5769 5767
5756 5756 5756 5758 5759 5760 5762 5763 5763 5763 5764 5764 5765 5765 5766 5766 5767 5768 5769 5769 5770 5771 5771 5772 5772 5772 5773 5773 5773 5772 5772 5771 5770 5770 5769 5768 5767 5767 5766 5765 5764 5762 5760 5758